This is the latest recevied weather packets stored in our database for station/object AG1T-1. If no packets are shown the sender has not sent any weather packets the latest 10 day(s).
| Time | Temp. | Humidity | Pressure | Rain* | Wind** | Luminosity | Snow |
|---|---|---|---|---|---|---|---|
| 1777613403 | 10.56° C | 44% | 1022.6 hPa | 0 mm | - | 0 W/m² | - |
| 1777612803 | 11.11° C | 44% | 1022.5 hPa | 0 mm | - | 0 W/m² | - |
| 1777612203 | 11.11° C | 44% | 1022.5 hPa | 0 mm | - | 0 W/m² | - |
| 1777611603 | 11.11° C | 43% | 1022.5 hPa | 0 mm | - | 0 W/m² | - |
| 1777611003 | 11.67° C | 42% | 1022.5 hPa | 0 mm | - | 0 W/m² | - |
| 1777610403 | 11.67° C | 40% | 1022.4 hPa | 0 mm | - | 0 W/m² | - |
| 1777609803 | 11.67° C | 41% | 1022.3 hPa | 0 mm | - | 0 W/m² | - |
| 1777609203 | 11.67° C | 40% | 1022.2 hPa | 0 mm | - | 0 W/m² | - |
| 1777608003 | 11.67° C | 41% | 1022.1 hPa | 0 mm | - | 0 W/m² | - |
| 1777606803 | 11.11° C | 42% | 1021.7 hPa | 0 mm | - | 0 W/m² | - |
| 1777606203 | 11.67° C | 41% | 1021.7 hPa | 0 mm | - | 0 W/m² | - |
| 1777605603 | 12.22° C | 40% | 1021.6 hPa | 0 mm | - | 0 W/m² | - |
| 1777605003 | 12.22° C | 39% | 1021.4 hPa | 0 mm | - | 0 W/m² | - |
| 1777604403 | 12.22° C | 39% | 1021.3 hPa | 0 mm | - | 0 W/m² | - |
| 1777603803 | 12.22° C | 39% | 1021.1 hPa | 0 mm | - | 0 W/m² | - |
| 1777603203 | 12.22° C | 39% | 1021.2 hPa | 0 mm | - | 0 W/m² | - |
| 1777602603 | 12.78° C | 39% | 1021 hPa | 0 mm | - | 0 W/m² | - |
| 1777602003 | 12.78° C | 38% | 1020.9 hPa | 0 mm | - | 9 W/m² | - |
| 1777601403 | 13.33° C | 38% | 1020.8 hPa | 0 mm | - | 14 W/m² | - |
| 1777600803 | 13.33° C | 38% | 1020.9 hPa | 0 mm | - | 19 W/m² | - |
| 1777600203 | 13.89° C | 37% | 1020.7 hPa | 0 mm | - | 25 W/m² | - |
| 1777599603 | 14.44° C | 37% | 1020.7 hPa | 0 mm | - | 56 W/m² | - |
| 1777599003 | 15° C | 37% | 1020.7 hPa | 0 mm | - | 146 W/m² | - |
| 1777598403 | 15° C | 35% | 1020.6 hPa | 0 mm | - | 209 W/m² | - |
| 1777597803 | 15.56° C | 34% | 1020.6 hPa | 0 mm | - | 258 W/m² | - |
* Rain latest hour (hover to see other rain measurements)
** Current wind speed in m/s (hover to see current wind gust speed)